Etusivu
METAR-TAF:

METAR-TAF

Lentoasemat :

Hutchinson Municipal Airport (Butler Field)

Hutchinson, Minnesota, Yhdysvallat

Leveyspiiri: 44-52N, Pituuspiiri: 094-23W, korkeus merenpinnasta: 323 m

Tämänhetkinen sää

Tämä raportti tehtiin 21 minuuttia sitten, kello 09.18 UTC
Tuuli 7 kn kaakosta
Lämpötila -6°C
Kosteus 73%
Ilmanpaine 1012 hPa
Näkyvyys: 16.1 km
selkeää

METAR: KHCD 130918Z AUTO 14007KT 10SM CLR M06/M10 A2987 RMK AO2 T10571105

Aika: 03:39 (09:39 UTC)


TAF: puuttuu

Säähavainnot ja -ennusteet yli 4000 lentoasemalta (METAR- ja TAF-raportit).

Käytössä olevat sääasemat on merkitty karttaan keltaisilla ja punaisilla pisteillä.

Aseta hiiri pisteen päälle nähdäksesi sääaseman nimen.

Klikkaa sitten nähdäksesi säähavainnot ja -ennusteet.

Kartan vaihtaminen: klikkaa mustalla rastilla varustettuja vihreitä pisteitä, niin voit zoomata sisään; viivalla varustettua vihreää pistettä, niin voit zoomata ulos tai vihreitä nuolia, niin pääset viereisille kartoille.


METAR-TAF: